RJA703 OEJN-OJAI

Flight info

Callsign RJA703
Flight time 1h 33m
Altitude 32000
Route MIGDA L677 WEJ M449 MUNRA
Aircraft A21N/M-SDE2E3FGHIRWXY/LB1

Departure

Time 2026-05-07 10:45
Airport King Abdulaziz International Airport (OEJN)

Arrival

Time 2026-05-07 12:18
Airport Queen Alia International Airport (OJAI)
Time Latitude Longitude Altitude Speed Heading
2026-05-07 10:35 21.66648 39.17048 36 ft 0 kts 69°
2026-05-07 10:37 21.66644 39.17035 36 ft 4 kts 72°
2026-05-07 10:37 21.66637 39.17007 36 ft 4 kts 78°
2026-05-07 10:37 21.66633 39.16978 36 ft 4 kts 89°
2026-05-07 10:38 21.66636 39.16951 36 ft 4 kts 115°
2026-05-07 10:38 21.66649 39.16935 36 ft 1 kts 160°
2026-05-07 10:41 21.66648 39.16935 36 ft 2 kts 160°
2026-05-07 10:42 21.66548 39.16974 36 ft 18 kts 160°
2026-05-07 10:42 21.66424 39.17019 36 ft 19 kts 185°
2026-05-07 10:42 21.66291 39.16986 36 ft 20 kts 207°
2026-05-07 10:42 21.66179 39.16895 36 ft 19 kts 217°
2026-05-07 10:43 21.66125 39.16786 36 ft 20 kts 330°
2026-05-07 10:43 21.66208 39.16709 36 ft 16 kts 271°
2026-05-07 10:43 21.66170 39.16595 36 ft 17 kts 243°
2026-05-07 10:43 21.66168 39.16475 35 ft 18 kts 325°
2026-05-07 10:44 21.66284 39.16421 36 ft 21 kts 341°
2026-05-07 10:44 21.66630 39.16289 44 ft 87 kts 338°
2026-05-07 10:44 21.67414 39.15979 42 ft 150 kts 340°
2026-05-07 10:44 21.68525 39.15547 203 ft 177 kts 342°
2026-05-07 10:45 21.69679 39.15168 872 ft 172 kts 342°
2026-05-07 10:45 21.70826 39.14715 1357 ft 178 kts 336°
2026-05-07 10:45 21.72017 39.14195 1742 ft 193 kts 338°
2026-05-07 10:45 21.73315 39.13667 2135 ft 206 kts 339°
2026-05-07 10:46 21.74700 39.13117 2581 ft 220 kts 339°
2026-05-07 10:46 21.76205 39.12520 2934 ft 243 kts 339°
2026-05-07 10:46 21.77859 39.11863 3366 ft 262 kts 339°
2026-05-07 10:46 21.79592 39.11177 4057 ft 269 kts 339°
2026-05-07 10:47 21.81359 39.10478 4832 ft 272 kts 339°
2026-05-07 10:47 21.83145 39.09771 5581 ft 275 kts 339°
2026-05-07 10:47 21.84947 39.09057 6292 ft 278 kts 339°
2026-05-07 10:47 21.86780 39.08332 6975 ft 282 kts 339°
2026-05-07 10:48 21.88632 39.07599 7630 ft 285 kts 339°
2026-05-07 10:48 21.90484 39.06808 8259 ft 288 kts 336°
2026-05-07 10:48 21.92330 39.05933 8869 ft 291 kts 335°
2026-05-07 10:48 21.94190 39.05040 9458 ft 294 kts 335°
2026-05-07 10:49 21.96072 39.04139 10028 ft 297 kts 335°
2026-05-07 10:49 21.97994 39.03219 10387 ft 309 kts 335°
2026-05-07 10:49 22.00002 39.02258 10629 ft 323 kts 335°
2026-05-07 10:49 22.02100 39.01255 10839 ft 337 kts 335°
2026-05-07 10:50 22.04286 39.00208 11038 ft 350 kts 335°
2026-05-07 10:50 22.06555 38.99121 11229 ft 363 kts 335°
2026-05-07 10:50 22.08901 38.97996 11412 ft 375 kts 335°
2026-05-07 10:50 22.11320 38.96836 11600 ft 385 kts 335°
2026-05-07 10:51 22.13791 38.95654 11950 ft 390 kts 335°
2026-05-07 10:51 22.16248 38.94477 12352 ft 393 kts 335°
2026-05-07 10:51 22.18751 38.93278 12752 ft 395 kts 335°
2026-05-07 10:51 22.21271 38.92074 13133 ft 397 kts 336°
2026-05-07 10:52 22.23807 38.90865 13498 ft 400 kts 336°
2026-05-07 10:52 22.26361 38.89645 13840 ft 402 kts 335°
2026-05-07 10:52 22.28960 38.88399 14180 ft 405 kts 335°
2026-05-07 10:52 22.31541 38.87160 14503 ft 407 kts 335°
2026-05-07 10:53 22.34101 38.85931 14811 ft 409 kts 335°
2026-05-07 10:53 22.36744 38.84662 15112 ft 411 kts 335°
2026-05-07 10:53 22.39364 38.83404 15397 ft 413 kts 335°
2026-05-07 10:53 22.41998 38.82138 15673 ft 415 kts 335°
2026-05-07 10:54 22.44608 38.80884 15938 ft 417 kts 335°
2026-05-07 10:54 22.47263 38.79608 16198 ft 419 kts 335°
2026-05-07 10:54 22.49935 38.78322 16449 ft 421 kts 335°
2026-05-07 10:54 22.52615 38.77031 16683 ft 423 kts 335°
2026-05-07 10:55 22.55307 38.75735 16911 ft 424 kts 335°
2026-05-07 10:55 22.58006 38.74434 17129 ft 426 kts 335°
2026-05-07 10:55 22.60717 38.73126 17336 ft 427 kts 335°
2026-05-07 10:55 22.63440 38.71815 17543 ft 429 kts 336°
2026-05-07 10:56 22.66194 38.70566 17735 ft 430 kts 337°
2026-05-07 10:56 22.68970 38.69334 17919 ft 432 kts 337°
2026-05-07 10:56 22.71758 38.68100 18095 ft 433 kts 337°
2026-05-07 10:56 22.74552 38.66861 18263 ft 434 kts 337°
2026-05-07 10:57 22.77353 38.65619 18430 ft 436 kts 337°
2026-05-07 10:57 22.80162 38.64374 18585 ft 437 kts 337°
2026-05-07 10:57 22.82979 38.63124 18730 ft 438 kts 337°
2026-05-07 10:57 22.85800 38.61870 18877 ft 439 kts 337°
2026-05-07 10:58 22.88631 38.60611 19023 ft 440 kts 337°
2026-05-07 10:58 22.91466 38.59351 19157 ft 441 kts 337°
2026-05-07 10:58 22.94309 38.58087 19285 ft 442 kts 337°
2026-05-07 10:58 22.97159 38.56818 19414 ft 443 kts 337°
2026-05-07 10:59 23.00014 38.55546 19532 ft 444 kts 337°
2026-05-07 10:59 23.02874 38.54271 19649 ft 445 kts 337°
2026-05-07 10:59 23.05743 38.52992 19764 ft 446 kts 337°
2026-05-07 10:59 23.08614 38.51713 19877 ft 447 kts 337°
2026-05-07 11:00 23.11491 38.50430 19980 ft 447 kts 337°
2026-05-07 11:00 23.14373 38.49145 20080 ft 448 kts 337°
2026-05-07 11:00 23.17260 38.47855 20171 ft 449 kts 337°
2026-05-07 11:00 23.20151 38.46564 20254 ft 450 kts 337°
2026-05-07 11:01 23.23048 38.45269 20344 ft 450 kts 337°
2026-05-07 11:01 23.25950 38.43971 20436 ft 451 kts 337°
2026-05-07 11:01 23.28849 38.42673 20520 ft 452 kts 337°
2026-05-07 11:01 23.31762 38.41370 20597 ft 452 kts 337°
2026-05-07 11:02 23.34674 38.40065 20668 ft 453 kts 337°
2026-05-07 11:02 23.37589 38.38759 20737 ft 453 kts 337°
2026-05-07 11:02 23.40506 38.37452 20806 ft 454 kts 337°
2026-05-07 11:02 23.43430 38.36140 20879 ft 455 kts 337°
2026-05-07 11:03 23.46359 38.34827 20945 ft 455 kts 337°
2026-05-07 11:03 23.49286 38.33513 21006 ft 456 kts 337°
2026-05-07 11:03 23.52179 38.32214 21067 ft 456 kts 337°
2026-05-07 11:03 23.55118 38.30895 21129 ft 457 kts 337°
2026-05-07 11:04 23.58053 38.29576 21184 ft 457 kts 337°
2026-05-07 11:04 23.60995 38.28254 21238 ft 457 kts 337°
2026-05-07 11:04 23.63940 38.26928 21293 ft 458 kts 337°
2026-05-07 11:04 23.66885 38.25600 21350 ft 458 kts 337°
2026-05-07 11:05 23.69835 38.24270 21401 ft 459 kts 337°
2026-05-07 11:05 23.72783 38.22942 21450 ft 459 kts 337°
2026-05-07 11:05 23.75737 38.21611 21500 ft 459 kts 337°
2026-05-07 11:05 23.78696 38.20276 21550 ft 460 kts 337°
2026-05-07 11:06 23.81656 38.18940 21597 ft 460 kts 337°
2026-05-07 11:06 23.84616 38.17602 21640 ft 461 kts 337°
2026-05-07 11:06 23.87580 38.16263 21683 ft 461 kts 337°
2026-05-07 11:06 23.90539 38.14925 21726 ft 461 kts 337°
2026-05-07 11:07 23.93508 38.13583 21770 ft 462 kts 337°
2026-05-07 11:07 23.96474 38.12240 21817 ft 462 kts 337°
2026-05-07 11:07 23.99446 38.10894 21867 ft 462 kts 337°
2026-05-07 11:07 24.02419 38.09547 21917 ft 463 kts 337°
2026-05-07 11:08 24.05393 38.08199 21961 ft 463 kts 337°
2026-05-07 11:08 24.08331 38.06867 22002 ft 463 kts 337°
2026-05-07 11:08 24.11351 38.05497 22046 ft 464 kts 337°
2026-05-07 11:08 24.14273 38.04117 22085 ft 464 kts 333°
2026-05-07 11:09 24.17048 38.02322 22124 ft 464 kts 326°
2026-05-07 11:09 24.19717 38.00335 22164 ft 464 kts 325°
2026-05-07 11:09 24.22373 37.98327 22200 ft 464 kts 325°
2026-05-07 11:09 24.25034 37.96319 22236 ft 465 kts 325°
2026-05-07 11:10 24.27701 37.94313 22268 ft 465 kts 325°
2026-05-07 11:10 24.30374 37.92306 22303 ft 465 kts 325°
2026-05-07 11:10 24.33047 37.90298 22343 ft 466 kts 325°
2026-05-07 11:10 24.35719 37.88292 22381 ft 466 kts 325°
2026-05-07 11:11 24.38397 37.86281 22416 ft 466 kts 325°
2026-05-07 11:11 24.41069 37.84266 22450 ft 466 kts 325°
2026-05-07 11:11 24.42837 37.82931 22471 ft 467 kts 325°
2026-05-07 11:11 24.45518 37.80916 22500 ft 467 kts 325°
2026-05-07 11:12 24.48199 37.78901 22532 ft 467 kts 325°
2026-05-07 11:12 24.50878 37.76885 22567 ft 467 kts 325°
2026-05-07 11:12 24.53558 37.74866 22599 ft 467 kts 325°
2026-05-07 11:12 24.56242 37.72842 22627 ft 468 kts 325°
2026-05-07 11:13 24.59793 37.70161 22665 ft 468 kts 325°
2026-05-07 11:13 24.61607 37.68792 22683 ft 468 kts 325°
2026-05-07 11:13 24.64294 37.66763 22709 ft 468 kts 325°
2026-05-07 11:13 24.66979 37.64732 22734 ft 469 kts 325°
2026-05-07 11:14 24.69666 37.62702 22756 ft 469 kts 325°
2026-05-07 11:14 24.72354 37.60668 22778 ft 469 kts 325°
2026-05-07 11:14 24.75042 37.58631 22802 ft 469 kts 325°
2026-05-07 11:14 24.77728 37.56595 22829 ft 469 kts 325°
2026-05-07 11:15 24.80418 37.54557 22856 ft 470 kts 325°
2026-05-07 11:15 24.83110 37.52517 22876 ft 470 kts 325°
2026-05-07 11:15 24.85804 37.50473 22899 ft 470 kts 325°
2026-05-07 11:15 24.88495 37.48429 22924 ft 470 kts 325°
2026-05-07 11:16 24.91189 37.46383 22945 ft 470 kts 325°
2026-05-07 11:16 24.93880 37.44339 22962 ft 470 kts 325°
2026-05-07 11:16 24.96577 37.42290 22978 ft 471 kts 325°
2026-05-07 11:16 24.99235 37.40269 22992 ft 471 kts 325°
2026-05-07 11:17 25.01930 37.38218 23006 ft 471 kts 325°
2026-05-07 11:17 25.04624 37.36165 23019 ft 471 kts 325°
2026-05-07 11:17 25.07318 37.34113 23030 ft 471 kts 325°
2026-05-07 11:17 25.10015 37.32058 23041 ft 471 kts 325°
2026-05-07 11:18 25.12712 37.30002 23051 ft 471 kts 325°
2026-05-07 11:18 25.15409 37.27943 23062 ft 471 kts 325°
2026-05-07 11:18 25.18103 37.25884 23073 ft 471 kts 325°
2026-05-07 11:18 25.20801 37.23823 23084 ft 471 kts 325°
2026-05-07 11:19 25.23495 37.21762 23096 ft 471 kts 325°
2026-05-07 11:19 25.26190 37.19692 23110 ft 471 kts 325°
2026-05-07 11:19 25.28888 37.17631 23122 ft 472 kts 325°
2026-05-07 11:19 25.31588 37.15568 23134 ft 472 kts 325°
2026-05-07 11:20 25.34285 37.13502 23145 ft 472 kts 325°
2026-05-07 11:20 25.36985 37.11432 23156 ft 472 kts 325°
2026-05-07 11:20 25.39681 37.09363 23166 ft 472 kts 325°
2026-05-07 11:20 25.42381 37.07291 23174 ft 472 kts 325°
2026-05-07 11:21 25.45073 37.05224 23182 ft 472 kts 325°
2026-05-07 11:21 25.47774 37.03148 23190 ft 472 kts 325°
2026-05-07 11:21 25.50470 37.01074 23198 ft 472 kts 325°
2026-05-07 11:21 25.53168 36.98998 23207 ft 472 kts 325°
2026-05-07 11:22 25.55864 36.96924 23215 ft 472 kts 324°
2026-05-07 11:22 25.58562 36.94845 23222 ft 472 kts 324°
2026-05-07 11:22 25.61257 36.92767 23230 ft 472 kts 324°
2026-05-07 11:22 25.63954 36.90688 23237 ft 472 kts 324°
2026-05-07 11:23 25.66615 36.88636 23251 ft 472 kts 324°
2026-05-07 11:23 25.69312 36.86554 23265 ft 473 kts 324°
2026-05-07 11:23 25.72011 36.84469 23281 ft 473 kts 324°
2026-05-07 11:23 25.74711 36.82381 23296 ft 473 kts 324°
2026-05-07 11:24 25.77409 36.80295 23311 ft 473 kts 324°
2026-05-07 11:24 25.80108 36.78207 23321 ft 473 kts 324°
2026-05-07 11:24 25.82805 36.76120 23330 ft 473 kts 324°
2026-05-07 11:24 25.85506 36.74029 23338 ft 473 kts 324°
2026-05-07 11:25 25.88205 36.71937 23346 ft 473 kts 324°
2026-05-07 11:25 25.90906 36.69842 23354 ft 473 kts 324°
2026-05-07 11:25 25.93604 36.67748 23360 ft 473 kts 324°
2026-05-07 11:25 25.96302 36.65653 23370 ft 473 kts 324°
2026-05-07 11:26 25.98999 36.63557 23380 ft 473 kts 324°
2026-05-07 11:26 26.01701 36.61456 23390 ft 473 kts 324°
2026-05-07 11:26 26.04399 36.59358 23399 ft 474 kts 324°
2026-05-07 11:26 26.07100 36.57256 23409 ft 474 kts 324°
2026-05-07 11:27 26.09797 36.55157 23419 ft 474 kts 324°
2026-05-07 11:27 26.12499 36.53054 23430 ft 474 kts 324°
2026-05-07 11:27 26.15291 36.51102 23431 ft 474 kts 332°
2026-05-07 11:27 26.18347 36.49736 23429 ft 475 kts 344°
2026-05-07 11:28 26.21594 36.49097 23426 ft 475 kts 355°
2026-05-07 11:28 26.24897 36.49119 23432 ft 475 kts
2026-05-07 11:28 26.28200 36.49319 23439 ft 475 kts
2026-05-07 11:28 26.31456 36.49523 23462 ft 475 kts
2026-05-07 11:29 26.34751 36.49718 23497 ft 474 kts
2026-05-07 11:29 26.38044 36.49906 23537 ft 474 kts
2026-05-07 11:29 26.41342 36.50088 23577 ft 473 kts
2026-05-07 11:29 26.44622 36.50266 23617 ft 472 kts
2026-05-07 11:30 26.47899 36.50446 23656 ft 471 kts
2026-05-07 11:30 26.51170 36.50625 23694 ft 470 kts
2026-05-07 11:30 26.54432 36.50803 23732 ft 469 kts
2026-05-07 11:30 26.57683 36.50981 23769 ft 468 kts
2026-05-07 11:31 26.60939 36.51162 23808 ft 467 kts
2026-05-07 11:31 26.64189 36.51340 23850 ft 467 kts
2026-05-07 11:31 26.67428 36.51518 23893 ft 466 kts
2026-05-07 11:31 26.70670 36.51696 23936 ft 466 kts
2026-05-07 11:32 26.77132 36.52052 24023 ft 465 kts
2026-05-07 11:32 26.80363 36.52229 24066 ft 464 kts
2026-05-07 11:32 26.83587 36.52407 24108 ft 463 kts
2026-05-07 11:33 26.86803 36.52585 24150 ft 463 kts
2026-05-07 11:33 26.90021 36.52766 24190 ft 462 kts
2026-05-07 11:33 26.93228 36.52945 24230 ft 461 kts
2026-05-07 11:33 26.96437 36.53123 24269 ft 461 kts
2026-05-07 11:34 26.99639 36.53299 24307 ft 460 kts
2026-05-07 11:34 27.02831 36.53476 24348 ft 460 kts
2026-05-07 11:34 27.06021 36.53656 24388 ft 459 kts
2026-05-07 11:34 27.09215 36.53836 24429 ft 458 kts
2026-05-07 11:35 27.12396 36.54013 24468 ft 458 kts
2026-05-07 11:35 27.15531 36.54188 24506 ft 457 kts
2026-05-07 11:35 27.18707 36.54365 24545 ft 457 kts
2026-05-07 11:35 27.21885 36.54544 24583 ft 456 kts
2026-05-07 11:36 27.25057 36.54721 24623 ft 456 kts
2026-05-07 11:36 27.28223 36.54899 24661 ft 455 kts
2026-05-07 11:36 27.31384 36.55075 24700 ft 455 kts
2026-05-07 11:36 27.34545 36.55251 24741 ft 454 kts
2026-05-07 11:37 27.37703 36.55428 24784 ft 454 kts
2026-05-07 11:37 27.40856 36.55605 24825 ft 454 kts
2026-05-07 11:37 27.44006 36.55782 24867 ft 453 kts
2026-05-07 11:37 27.47152 36.55958 24908 ft 453 kts
2026-05-07 11:38 27.50301 36.56136 24838 ft 455 kts
2026-05-07 11:38 27.53479 36.56314 24644 ft 460 kts
2026-05-07 11:38 27.56695 36.56494 24418 ft 466 kts
2026-05-07 11:38 27.59965 36.56677 24179 ft 473 kts
2026-05-07 11:39 27.63267 36.56862 23938 ft 479 kts
2026-05-07 11:39 27.66618 36.57050 23693 ft 485 kts
2026-05-07 11:39 27.70006 36.57241 23448 ft 490 kts
2026-05-07 11:39 27.73431 36.57434 23202 ft 496 kts
2026-05-07 11:40 27.76897 36.57627 23005 ft 500 kts
2026-05-07 11:40 27.80375 36.57824 22972 ft 500 kts
2026-05-07 11:40 27.83847 36.58020 22980 ft 500 kts
2026-05-07 11:40 27.87316 36.58214 22992 ft 499 kts
2026-05-07 11:41 27.90782 36.58410 22999 ft 499 kts
2026-05-07 11:41 27.94245 36.58607 23000 ft 499 kts
2026-05-07 11:41 27.97713 36.58803 23001 ft 498 kts
2026-05-07 11:41 28.01177 36.58999 23001 ft 498 kts
2026-05-07 11:42 28.04641 36.59196 23001 ft 498 kts
2026-05-07 11:42 28.08102 36.59394 23001 ft 498 kts
2026-05-07 11:42 28.11562 36.59594 23003 ft 498 kts
2026-05-07 11:42 28.15023 36.59791 23001 ft 498 kts
2026-05-07 11:43 28.18483 36.59987 23002 ft 498 kts
2026-05-07 11:43 28.21942 36.60182 23002 ft 498 kts
2026-05-07 11:43 28.25400 36.60380 23002 ft 497 kts
2026-05-07 11:43 28.28851 36.60578 23001 ft 497 kts
2026-05-07 11:44 28.32308 36.60777 23001 ft 497 kts
2026-05-07 11:44 28.35718 36.60930 22998 ft 497 kts 360°
2026-05-07 11:44 28.39156 36.60568 23001 ft 496 kts 351°
2026-05-07 11:44 28.42562 36.59961 23003 ft 496 kts 351°
2026-05-07 11:45 28.45972 36.59340 23002 ft 496 kts 351°
2026-05-07 11:45 28.49379 36.58726 23002 ft 495 kts 351°
2026-05-07 11:45 28.52777 36.58117 23001 ft 494 kts 351°
2026-05-07 11:45 28.56174 36.57508 23002 ft 494 kts 351°
2026-05-07 11:46 28.59565 36.56901 23002 ft 493 kts 351°
2026-05-07 11:46 28.62958 36.56295 23001 ft 493 kts 351°
2026-05-07 11:46 28.66342 36.55688 23001 ft 492 kts 351°
2026-05-07 11:46 28.69721 36.55082 23001 ft 492 kts 351°
2026-05-07 11:47 28.73098 36.54476 23001 ft 491 kts 351°
2026-05-07 11:47 28.76475 36.53869 23001 ft 490 kts 351°
2026-05-07 11:47 28.79842 36.53263 23001 ft 490 kts 351°
2026-05-07 11:47 28.83213 36.52656 23001 ft 490 kts 351°
2026-05-07 11:48 28.92901 36.50909 23001 ft 489 kts 351°
2026-05-07 11:48 28.96267 36.50304 23001 ft 489 kts 351°
2026-05-07 11:49 28.99629 36.49702 23001 ft 489 kts 351°
2026-05-07 11:49 29.02992 36.49096 23002 ft 489 kts 351°
2026-05-07 11:49 29.06350 36.48490 23001 ft 489 kts 351°
2026-05-07 11:49 29.09717 36.47881 23001 ft 489 kts 351°
2026-05-07 11:50 29.13083 36.47273 23001 ft 489 kts 351°
2026-05-07 11:50 29.16447 36.46665 23001 ft 489 kts 351°
2026-05-07 11:50 29.19811 36.46058 23002 ft 489 kts 351°
2026-05-07 11:50 29.23172 36.45451 23002 ft 489 kts 351°
2026-05-07 11:51 29.26537 36.44842 23002 ft 489 kts 351°
2026-05-07 11:51 29.29896 36.44233 23001 ft 489 kts 351°
2026-05-07 11:51 29.33265 36.43623 23002 ft 489 kts 351°
2026-05-07 11:51 29.36624 36.43013 23002 ft 489 kts 351°
2026-05-07 11:52 29.39989 36.42402 23002 ft 489 kts 351°
2026-05-07 11:52 29.43358 36.41791 23001 ft 489 kts 351°
2026-05-07 11:52 29.46711 36.41184 23002 ft 489 kts 351°
2026-05-07 11:52 29.50080 36.40577 23002 ft 489 kts 351°
2026-05-07 11:53 29.53398 36.39978 23002 ft 489 kts 351°
2026-05-07 11:53 29.56764 36.39370 23002 ft 489 kts 351°
2026-05-07 11:53 29.60122 36.38763 23001 ft 489 kts 351°
2026-05-07 11:53 29.63491 36.38152 23001 ft 489 kts 351°
2026-05-07 11:54 29.66900 36.37535 23002 ft 489 kts 351°
2026-05-07 11:54 29.70266 36.36916 23002 ft 489 kts 350°
2026-05-07 11:54 29.73571 36.36246 23002 ft 489 kts 349°
2026-05-07 11:54 29.76926 36.35559 23002 ft 489 kts 349°
2026-05-07 11:55 29.80276 36.34873 23002 ft 489 kts 349°
2026-05-07 11:55 29.83634 36.34183 23002 ft 489 kts 349°
2026-05-07 11:55 29.86988 36.33514 22999 ft 490 kts 352°
2026-05-07 11:55 29.90386 36.33306 23000 ft 490 kts 359°
2026-05-07 11:56 29.93793 36.33301 23001 ft 490 kts 360°
2026-05-07 11:56 29.97200 36.33298 23001 ft 490 kts 359°
2026-05-07 11:56 30.00608 36.33274 23001 ft 490 kts 359°
2026-05-07 11:56 30.04018 36.33235 23001 ft 490 kts 359°
2026-05-07 11:57 30.07428 36.33188 23001 ft 490 kts 359°
2026-05-07 11:57 30.10834 36.33138 23001 ft 490 kts 359°
2026-05-07 11:57 30.14242 36.33089 23001 ft 490 kts 359°
2026-05-07 11:57 30.17646 36.33041 23001 ft 490 kts 359°
2026-05-07 11:58 30.21056 36.32994 23002 ft 490 kts 359°
2026-05-07 11:58 30.24463 36.32947 23002 ft 490 kts 359°
2026-05-07 11:58 30.27869 36.32900 23002 ft 490 kts 359°
2026-05-07 11:58 30.31282 36.32852 23001 ft 490 kts 359°
2026-05-07 11:59 30.34692 36.32803 23001 ft 490 kts 359°
2026-05-07 11:59 30.38101 36.32755 23001 ft 490 kts 359°
2026-05-07 11:59 30.41509 36.32706 23001 ft 490 kts 359°
2026-05-07 11:59 30.44918 36.32659 23001 ft 490 kts 359°
2026-05-07 12:00 30.48326 36.32612 23001 ft 490 kts 359°
2026-05-07 12:00 30.51735 36.32565 23001 ft 490 kts 359°
2026-05-07 12:00 30.55148 36.32517 23001 ft 490 kts 359°
2026-05-07 12:00 30.58553 36.32468 22980 ft 490 kts 359°
2026-05-07 12:01 30.61884 36.32420 22248 ft 482 kts 359°
2026-05-07 12:01 30.65237 36.32372 21001 ft 483 kts 359°
2026-05-07 12:01 30.68583 36.32325 20017 ft 478 kts 359°
2026-05-07 12:01 30.71857 36.32278 19465 ft 463 kts 359°
2026-05-07 12:02 30.75025 36.32231 19052 ft 446 kts 359°
2026-05-07 12:02 30.78068 36.32188 18691 ft 430 kts 359°
2026-05-07 12:02 30.81025 36.32147 18111 ft 421 kts 359°
2026-05-07 12:02 30.83931 36.32109 17426 ft 415 kts 359°
2026-05-07 12:03 30.86808 36.32069 16733 ft 411 kts 359°
2026-05-07 12:03 30.89651 36.32028 16050 ft 406 kts 359°
2026-05-07 12:03 30.92459 36.31987 15380 ft 401 kts 359°
2026-05-07 12:03 30.95232 36.31947 14723 ft 397 kts 359°
2026-05-07 12:04 30.97981 36.31908 14073 ft 393 kts 359°
2026-05-07 12:04 31.00696 36.31869 13433 ft 388 kts 359°
2026-05-07 12:04 31.03381 36.31830 12796 ft 384 kts 359°
2026-05-07 12:04 31.06043 36.31792 12162 ft 380 kts 359°
2026-05-07 12:05 31.08671 36.31755 11566 ft 376 kts 359°
2026-05-07 12:05 31.11268 36.31719 11268 ft 366 kts 359°
2026-05-07 12:05 31.13759 36.31683 11087 ft 351 kts 359°
2026-05-07 12:05 31.16136 36.31649 10935 ft 335 kts 359°
2026-05-07 12:06 31.18420 36.31617 10788 ft 320 kts 359°
2026-05-07 12:06 31.20596 36.31586 10644 ft 306 kts 359°
2026-05-07 12:06 31.22708 36.31556 10509 ft 303 kts 359°
2026-05-07 12:06 31.24813 36.31526 10380 ft 302 kts 359°
2026-05-07 12:07 31.26916 36.31496 10253 ft 302 kts 359°
2026-05-07 12:07 31.29012 36.31466 10128 ft 301 kts 359°
2026-05-07 12:07 31.31104 36.31435 10004 ft 300 kts 359°
2026-05-07 12:07 31.33191 36.31406 9879 ft 300 kts 359°
2026-05-07 12:08 31.35248 36.31376 9755 ft 299 kts 359°
2026-05-07 12:08 31.37328 36.31347 9631 ft 299 kts 359°
2026-05-07 12:08 31.39406 36.31316 9505 ft 298 kts 359°
2026-05-07 12:08 31.41478 36.31286 9381 ft 297 kts 359°
2026-05-07 12:09 31.43543 36.31256 9256 ft 297 kts 359°
2026-05-07 12:09 31.45603 36.31226 9132 ft 296 kts 359°
2026-05-07 12:09 31.47662 36.31196 9006 ft 295 kts 359°
2026-05-07 12:09 31.49715 36.31166 8880 ft 295 kts 359°
2026-05-07 12:10 31.51755 36.31030 8659 ft 293 kts 352°
2026-05-07 12:10 31.53755 36.30664 8348 ft 290 kts 350°
2026-05-07 12:10 31.55743 36.30267 8009 ft 289 kts 350°
2026-05-07 12:10 31.57723 36.29872 7666 ft 288 kts 350°
2026-05-07 12:11 31.59692 36.29484 7323 ft 287 kts 350°
2026-05-07 12:11 31.61665 36.29097 6958 ft 287 kts 350°
2026-05-07 12:11 31.63634 36.28714 6589 ft 287 kts 350°
2026-05-07 12:11 31.65600 36.28333 6217 ft 284 kts 350°
2026-05-07 12:12 31.67535 36.27953 5855 ft 280 kts 350°
2026-05-07 12:12 31.69431 36.27581 5631 ft 271 kts 350°
2026-05-07 12:12 31.71244 36.27227 5540 ft 256 kts 350°
2026-05-07 12:12 31.72984 36.26890 5604 ft 252 kts 350°
2026-05-07 12:13 31.74636 36.26463 5561 ft 234 kts 336°
2026-05-07 12:13 31.75910 36.25387 5479 ft 226 kts 306°
2026-05-07 12:13 31.76506 36.23744 5257 ft 223 kts 275°
2026-05-07 12:13 31.76455 36.21905 5163 ft 223 kts 261°
2026-05-07 12:14 31.76163 36.20145 5157 ft 223 kts 257°
2026-05-07 12:14 31.75829 36.18367 5169 ft 223 kts 257°
2026-05-07 12:14 31.75526 36.16609 5070 ft 210 kts 258°
2026-05-07 12:14 31.75278 36.14998 4887 ft 191 kts 259°
2026-05-07 12:15 31.75072 36.13587 4650 ft 160 kts 259°
2026-05-07 12:15 31.74894 36.12352 4397 ft 151 kts 260°
2026-05-07 12:15 31.74720 36.11140 4174 ft 150 kts 260°
2026-05-07 12:15 31.74544 36.09916 3962 ft 149 kts 260°
2026-05-07 12:16 31.74373 36.08729 3764 ft 149 kts 260°
2026-05-07 12:16 31.74201 36.07532 3566 ft 148 kts 260°
2026-05-07 12:16 31.74029 36.06339 3369 ft 148 kts 260°
2026-05-07 12:16 31.73858 36.05149 3174 ft 148 kts 259°
2026-05-07 12:17 31.73687 36.03964 2978 ft 147 kts 259°
2026-05-07 12:17 31.73517 36.02783 2783 ft 146 kts 259°
2026-05-07 12:17 31.73348 36.01607 2590 ft 146 kts 259°
2026-05-07 12:17 31.73180 36.00435 2435 ft 145 kts 260°
2026-05-07 12:18 31.73031 35.99381 2414 ft 106 kts 259°
2026-05-07 12:18 31.72937 35.98753 2416 ft 60 kts 261°
2026-05-07 12:18 31.72893 35.98446 2414 ft 51 kts 260°
2026-05-07 12:18 31.72812 35.98182 2412 ft 25 kts 168°
2026-05-07 12:19 31.72652 35.98213 2414 ft 22 kts 168°
2026-05-07 12:19 31.72600 35.98366 2414 ft 23 kts 79°
2026-05-07 12:19 31.72630 35.98558 2414 ft 24 kts 80°
2026-05-07 12:19 31.72660 35.98756 2414 ft 23 kts 80°
2026-05-07 12:20 31.72606 35.98904 2414 ft 21 kts 179°
2026-05-07 12:20 31.72517 35.98854 2414 ft 10 kts 232°
2026-05-07 12:20 31.72456 35.98849 2414 ft 7 kts 162°
2026-05-07 12:20 31.72442 35.98853 2414 ft 2 kts 171°
2026-05-07 12:21 31.72438 35.98853 2414 ft 0 kts 171°